Location: ????????
(55.6333°N, 37.7000°E)
Time: 08:09:20
(UTC+00:00)

Cosmos 1151 Rocket - Pass Details

Date: 19 May 2025
Orbit: 586 x 606 km, 82.5° (Epoch: 23 June)

Event Time Altitude Azimuth Distance (km) Brightness Sun altitude
Exits shadow 22:19:35 13° 236° (SW) 1,717 4.9 -13.5°
Maximum altitude 22:22:44 30° 293° (WNW) 1,076 4.4 -13.4°
Drops below altitude 10° 22:26:30 10° 356° (N) 1,926 6.8 -13.3°
Sets 22:28:56 0° 7° (N) 2,832 8.4 -13.2°
